Location: ?????????
(55.6553°N, 38.9075°E)
Time: 18:38:10
(UTC+00:00)

Cosmos 1707 - Pass Details

Date: 18 October 2019
Orbit: 515 x 532 km, 82.5° (Epoch: 17 November)

Event Time Altitude Azimuth Distance (km) Brightness Sun altitude
Rises 02:20:24 0° 192° (SSW) 2,668 6.2 -14.7°
Reaches altitude 10° 02:22:32 10° 193° (SSW) 1,784 5.2 -14.4°
Maximum altitude 02:26:28 84° 282° (WNW) 545 2.7 -13.9°
Drops below altitude 10° 02:30:26 10° 11° (N) 1,798 5.6 -13.3°
Sets 02:32:35 0° 12° (NNE) 2,692 6.5 -13.0°
